�������l�o���
Date,Time,MP-1(��Sv/h),MP-2(��Sv/h),MP-3(��Sv/h),MP-4(��Sv/h),MP-5(��Sv/h),MP-6(��Sv/h),MP-7(��Sv/h),MP-8(��Sv/h),����,����(m/s),���J
2019/11/14,00:00,0.719,1.028,0.682,1.274,0.902,0.417,0.720,0.683,��,5.7,��
2019/11/14,00:10,0.716,1.032,0.682,1.276,0.901,0.417,0.720,0.680,��,4.9,��
2019/11/14,00:20,0.720,1.032,0.682,1.276,0.902,0.416,0.720,0.682,��,5.5,��
2019/11/14,00:30,0.718,1.031,0.681,1.275,0.901,0.418,0.720,0.682,��,7.1,��
2019/11/14,00:40,0.719,1.030,0.682,1.277,0.901,0.417,0.720,0.682,��,5.5,��
2019/11/14,00:50,0.721,1.029,0.685,1.277,0.901,0.416,0.720,0.683,��,4.6,��
2019/11/14,01:00,0.719,1.031,0.682,1.275,0.903,0.415,0.719,0.682,��,3.9,��
2019/11/14,01:10,0.719,1.028,0.682,1.277,0.902,0.417,0.721,0.683,��,4.6,��
2019/11/14,01:20,0.720,1.030,0.682,1.277,0.901,0.417,0.720,0.682,��,4.1,��
2019/11/14,01:30,0.720,1.029,0.681,1.277,0.902,0.417,0.720,0.681,��쐼,6.3,��
2019/11/14,01:40,0.719,1.030,0.684,1.278,0.902,0.418,0.719,0.681,��쐼,5.0,��
2019/11/14,01:50,0.720,1.028,0.681,1.277,0.902,0.417,0.719,0.681,��쐼,4.4,��
2019/11/14,02:00,0.722,1.029,0.683,1.275,0.902,0.416,0.720,0.683,�쐼,3.5,��
2019/11/14,02:10,0.720,1.030,0.680,1.274,0.902,0.418,0.720,0.683,��쐼,2.3,��
2019/11/14,02:20,0.723,1.030,0.683,1.273,0.902,0.416,0.721,0.683,�쐼,3.5,��
2019/11/14,02:30,0.721,1.030,0.683,1.276,0.899,0.418,0.720,0.683,��쐼,4.2,��
2019/11/14,02:40,0.721,1.029,0.683,1.277,0.902,0.416,0.721,0.683,��쐼,3.1,��
2019/11/14,02:50,0.723,1.031,0.683,1.276,0.902,0.417,0.720,0.682,��쐼,4.1,��
2019/11/14,03:00,0.720,1.030,0.685,1.279,0.903,0.418,0.722,0.683,��쐼,4.4,��
2019/11/14,03:10,0.720,1.033,0.684,1.275,0.900,0.417,0.720,0.683,�쐼,5.6,��
2019/11/14,03:20,0.720,1.031,0.684,1.278,0.902,0.417,0.719,0.681,��쐼,6.1,��
2019/11/14,03:30,0.720,1.033,0.685,1.282,0.903,0.417,0.721,0.682,��쐼,5.3,��
2019/11/14,03:40,0.720,1.034,0.685,1.278,0.904,0.416,0.720,0.683,��쐼,6.6,��
2019/11/14,03:50,0.720,1.029,0.685,1.277,0.902,0.418,0.722,0.683,��쐼,7.1,��
2019/11/14,04:00,0.721,1.027,0.685,1.278,0.903,0.418,0.721,0.683,��쐼,6.7,��
2019/11/14,04:10,0.721,1.031,0.683,1.279,0.902,0.417,0.719,0.684,��쐼,7.3,��
2019/11/14,04:20,0.720,1.033,0.685,1.278,0.901,0.417,0.720,0.683,�쐼,6.6,��
2019/11/14,04:30,0.723,1.033,0.686,1.280,0.901,0.419,0.720,0.684,��쐼,4.0,��
2019/11/14,04:40,0.721,1.033,0.685,1.279,0.902,0.416,0.721,0.681,�쐼,3.2,��
2019/11/14,04:50,0.720,1.031,0.683,1.280,0.901,0.416,0.719,0.683,��쐼,3.2,��
2019/11/14,05:00,0.720,1.034,0.685,1.279,0.904,0.419,0.720,0.682,��쐼,4.9,��
2019/11/14,05:10,0.720,1.034,0.685,1.279,0.904,0.418,0.721,0.684,��쐼,6.8,��
2019/11/14,05:20,0.718,1.034,0.684,1.280,0.904,0.418,0.722,0.682,��쐼,6.9,��
2019/11/14,05:30,0.721,1.032,0.686,1.278,0.903,0.417,0.721,0.683,��쐼,8.5,��
2019/11/14,05:40,0.722,1.033,0.684,1.277,0.904,0.418,0.721,0.683,�쐼,6.7,��
2019/11/14,05:50,0.723,1.032,0.685,1.280,0.904,0.419,0.722,0.683,�쐼,5.6,��
2019/11/14,06:00,0.724,1.032,0.686,1.280,0.906,0.418,0.720,0.682,�쐼,3.8,��
2019/11/14,06:10,0.722,1.031,0.684,1.276,0.903,0.417,0.721,0.682,��쐼,2.2,��
2019/11/14,06:20,0.721,1.033,0.684,1.278,0.903,0.419,0.720,0.684,��쐼,2.4,��
2019/11/14,06:30,0.725,1.034,0.684,1.277,0.906,0.418,0.722,0.682,��쐼,3.3,��
2019/11/14,06:40,0.722,1.034,0.682,1.280,0.905,0.418,0.722,0.684,��,4.9,��
2019/11/14,06:50,0.721,1.033,0.684,1.281,0.903,0.417,0.721,0.686,��쐼,6.0,��
2019/11/14,07:00,0.724,1.034,0.684,1.279,0.904,0.419,0.722,0.683,��쐼,5.4,��
2019/11/14,07:10,0.724,1.032,0.687,1.280,0.905,0.418,0.722,0.683,��쐼,4.4,��
2019/11/14,07:20,0.721,1.033,0.685,1.282,0.904,0.418,0.723,0.683,��쐼,3.8,��
2019/11/14,07:30,0.723,1.030,0.686,1.280,0.905,0.417,0.722,0.682,��,3.6,��
2019/11/14,07:40,0.722,1.032,0.683,1.279,0.904,0.418,0.723,0.683,��쐼,2.1,��
2019/11/14,07:50,0.722,1.033,0.686,1.278,0.903,0.418,0.720,0.682,��,2.6,��
2019/11/14,08:00,0.724,1.033,0.684,1.280,0.904,0.418,0.723,0.684,��쐼,2.0,��
2019/11/14,08:10,0.724,1.030,0.684,1.280,0.905,0.419,0.721,0.683,��쐼,2.2,��
2019/11/14,08:20,0.722,1.034,0.684,1.280,0.905,0.417,0.722,0.683,���쐼,1.1,��
2019/11/14,08:30,0.724,1.033,0.685,1.278,0.905,0.418,0.721,0.682,���k��,1.2,��
2019/11/14,08:40,0.725,1.031,0.685,1.279,0.907,0.417,0.722,0.684,���k��,0.5,��
2019/11/14,08:50,0.723,1.032,0.684,1.281,0.903,0.418,0.720,0.684,���k��,0.8,��
2019/11/14,09:00,0.723,1.029,0.685,1.281,0.905,0.417,0.720,0.683,���k��,1.5,��
2019/11/14,09:10,0.723,1.029,0.683,1.281,0.905,0.418,0.722,0.683,��,0.9,��
2019/11/14,09:20,0.725,1.030,0.685,1.280,0.904,0.417,0.721,0.684,��,2.1,��
2019/11/14,09:30,0.724,1.031,0.685,1.281,0.904,0.417,0.721,0.684,���k��,4.1,��
2019/11/14,09:40,0.725,1.030,0.686,1.282,0.903,0.416,0.720,0.683,��,4.1,��
2019/11/14,09:50,0.724,1.026,0.686,1.282,0.905,0.417,0.722,0.682,��,8.2,��
2019/11/14,10:00,0.724,1.030,0.686,1.282,0.905,0.417,0.721,0.682,��,9.6,��
2019/11/14,10:10,0.723,1.031,0.686,1.285,0.902,0.416,0.721,0.680,��,5.5,��
2019/11/14,10:20,0.724,1.029,0.686,1.282,0.905,0.416,0.721,0.680,��,4.5,��
2019/11/14,10:30,0.723,1.023,0.687,1.282,-,0.416,0.721,0.681,��,5.3,��
2019/11/14,10:40,0.722,1.026,0.687,1.283,-,0.416,0.721,0.681,���k��,8.2,��
2019/11/14,10:50,0.721,1.026,0.686,1.284,-,0.416,0.723,0.680,���k��,7.5,��
2019/11/14,11:00,0.720,1.025,0.685,1.284,-,0.415,0.721,0.681,��,9.4,��
2019/11/14,11:10,0.725,1.025,0.686,1.282,-,0.416,0.722,0.681,��,8.0,��
2019/11/14,11:20,0.724,1.028,0.686,1.283,-,0.415,0.723,0.681,��,7.8,��
2019/11/14,11:30,0.724,1.026,0.687,1.282,-,0.417,0.722,0.682,��,7.9,��
2019/11/14,11:40,0.723,1.029,0.686,1.284,-,0.417,0.722,0.683,���k��,9.9,��
2019/11/14,11:50,0.723,1.026,0.685,1.286,-,0.418,0.725,0.682,��,9.3,��
2019/11/14,12:00,0.722,1.033,0.685,1.285,-,0.418,0.722,0.681,���k��,8.3,��
2019/11/14,12:10,0.722,1.031,0.686,1.285,-,0.418,0.722,0.682,���k��,8.8,��
2019/11/14,12:20,0.723,1.034,0.685,1.284,-,0.418,0.724,0.680,��,12.8,��
2019/11/14,12:30,0.721,1.034,0.687,1.285,-,0.418,0.723,0.681,��,9.4,��
2019/11/14,12:40,0.724,1.036,0.685,1.287,-,0.418,0.724,0.682,��,13.4,��
2019/11/14,12:50,0.722,1.035,0.684,1.287,-,0.418,0.724,0.682,��,11.6,��
2019/11/14,13:00,0.726,1.034,0.685,1.286,-,0.417,0.724,0.681,��,10.4,��
2019/11/14,13:10,0.724,1.033,0.683,1.283,-,0.418,0.723,0.682,��,11.3,��
2019/11/14,13:20,0.723,1.032,0.687,1.287,-,0.416,0.723,0.681,���k��,10.5,��
2019/11/14,13:30,0.723,1.032,0.686,1.289,-,0.417,0.724,0.680,���k��,10.7,��
2019/11/14,13:40,0.722,1.034,0.686,1.286,-,0.417,0.723,0.682,���k��,13.8,��
2019/11/14,13:50,0.720,1.032,0.686,1.288,-,0.415,0.722,0.682,��,8.5,��
2019/11/14,14:00,0.721,1.033,0.685,1.288,-,0.414,0.721,0.679,���k��,8.8,��
2019/11/14,14:10,0.721,1.034,0.685,1.284,-,0.415,0.721,0.682,���k��,9.1,��
2019/11/14,14:20,0.720,1.035,0.685,1.288,-,0.416,0.723,0.680,���k��,8.2,��
2019/11/14,14:30,0.723,1.034,0.685,1.285,-,0.414,0.720,0.681,���k��,8.0,��
2019/11/14,14:40,0.720,1.034,0.685,1.285,-,0.417,0.723,0.681,���k��,6.6,��
2019/11/14,14:50,0.721,1.035,0.684,1.287,0.909,0.415,0.721,0.681,�k��,7.4,��
2019/11/14,15:00,0.721,1.036,0.683,1.287,0.909,0.418,0.723,0.680,�k�k��,5.5,��
2019/11/14,15:10,0.724,1.037,0.685,1.288,0.909,0.416,0.723,0.680,�k�k��,6.1,��
2019/11/14,15:20,0.724,1.040,0.686,1.288,0.908,0.416,0.722,0.681,�k��,6.8,��
2019/11/14,15:30,0.722,1.038,0.686,1.287,0.908,0.418,0.721,0.682,�k�k��,6.3,��
2019/11/14,15:40,0.722,1.042,0.684,1.286,0.910,0.416,0.721,0.684,�k�k��,8.8,��
2019/11/14,15:50,0.720,1.041,0.686,1.289,0.908,0.416,0.720,0.685,�k�k��,7.1,��
2019/11/14,16:00,0.722,1.040,0.685,1.287,0.909,0.416,0.722,0.683,�k��,10.5,��
2019/11/14,16:10,0.722,1.039,0.687,1.287,0.908,0.417,0.723,0.685,�k�k��,8.2,��
2019/11/14,16:20,0.722,1.039,0.687,1.284,0.907,0.416,0.722,0.684,�k�k��,7.4,��
2019/11/14,16:30,0.724,1.039,0.687,1.287,0.908,0.416,0.722,0.685,�k�k��,6.7,��
2019/11/14,16:40,0.723,1.042,0.684,1.289,0.907,0.414,0.721,0.685,�k�k��,6.6,��
2019/11/14,16:50,0.723,1.041,0.686,1.287,0.909,0.414,0.722,0.685,�k�k��,6.0,��
2019/11/14,17:00,0.722,1.043,0.686,1.287,0.908,0.414,0.721,0.684,�k�k��,6.0,��
2019/11/14,17:10,0.726,1.041,0.686,1.289,0.909,0.414,0.721,0.685,�k�k��,7.7,��
2019/11/14,17:20,0.723,1.041,0.689,1.288,0.911,0.415,0.722,0.685,�k�k��,9.3,��
2019/11/14,17:30,0.725,1.040,0.688,1.290,0.911,0.414,0.722,0.685,�k�k��,9.4,��
2019/11/14,17:40,0.723,1.040,0.687,1.287,0.911,0.413,0.722,0.685,�k��,10.4,��
2019/11/14,17:50,0.724,1.043,0.687,1.287,0.912,0.415,0.721,0.684,�k�k��,9.6,��
2019/11/14,18:00,0.721,1.043,0.686,1.289,0.912,0.414,0.721,0.683,�k�k��,8.6,��
2019/11/14,18:10,0.724,1.041,0.686,1.288,0.910,0.413,0.722,0.685,�k�k��,7.4,��
2019/11/14,18:20,0.724,1.039,0.688,1.287,0.911,0.414,0.721,0.683,�k�k��,6.6,��
2019/11/14,18:30,0.722,1.040,0.687,1.286,0.912,0.412,0.721,0.685,�k�k��,4.9,��
2019/11/14,18:40,0.723,1.042,0.685,1.288,0.911,0.414,0.722,0.684,�k�k��,5.7,��
2019/11/14,18:50,0.723,1.040,0.685,1.288,0.911,0.413,0.721,0.684,�k��,5.2,��
2019/11/14,19:00,0.723,1.041,0.688,1.288,0.912,0.413,0.722,0.683,�k��,5.7,��
2019/11/14,19:10,0.723,1.040,0.687,1.287,0.912,0.414,0.723,0.684,�k�k��,4.5,��
2019/11/14,19:20,0.722,1.041,0.687,1.287,0.910,0.412,0.723,0.683,�k�k��,6.3,��
2019/11/14,19:30,0.722,1.038,0.686,1.288,0.909,0.413,0.721,0.684,�k��,6.7,��
2019/11/14,19:40,0.724,1.040,0.686,1.289,0.911,0.415,0.723,0.682,�k��,6.6,��
2019/11/14,19:50,0.722,1.038,0.688,1.289,0.909,0.412,0.722,0.685,�k��,6.9,��
2019/11/14,20:00,0.722,1.041,0.688,1.291,0.911,0.413,0.723,0.683,�k��,5.6,��
2019/11/14,20:10,0.722,1.040,0.687,1.287,0.913,0.414,0.721,0.684,�k��,4.6,��
2019/11/14,20:20,0.723,1.042,0.689,1.287,0.912,0.412,0.722,0.684,�k��,5.6,��
2019/11/14,20:30,0.722,1.040,0.687,1.287,0.911,0.414,0.724,0.684,�k�k��,6.4,��
2019/11/14,20:40,0.721,1.040,0.687,1.287,0.910,0.412,0.723,0.685,�k�k��,5.6,��
2019/11/14,20:50,0.721,1.038,0.686,1.289,0.911,0.412,0.722,0.684,�k�k��,5.8,��
2019/11/14,21:00,0.721,1.040,0.687,1.287,0.913,0.413,0.722,0.684,�k�k��,6.3,��
2019/11/14,21:10,0.723,1.038,0.689,1.286,0.911,0.414,0.723,0.685,�k��,7.4,��
2019/11/14,21:20,0.721,1.040,0.687,1.288,0.909,0.412,0.723,0.683,�k��,5.5,��
2019/11/14,21:30,0.722,1.040,0.689,1.287,0.910,0.412,0.722,0.682,�k��,3.2,��
2019/11/14,21:40,0.723,1.042,0.687,1.290,0.909,0.413,0.722,0.683,�k�k��,4.2,��
2019/11/14,21:50,0.723,1.039,0.688,1.287,0.910,0.412,0.720,0.683,�k�k��,6.3,��
2019/11/14,22:00,0.723,1.041,0.686,1.292,0.910,0.415,0.722,0.684,�k�k��,6.3,��
2019/11/14,22:10,0.722,1.041,0.686,1.289,0.910,0.412,0.722,0.685,�k�k��,6.0,��
2019/11/14,22:20,0.721,1.041,0.687,1.288,0.911,0.412,0.721,0.684,�k�k��,5.8,��
2019/11/14,22:30,0.721,1.037,0.685,1.289,0.910,0.413,0.722,0.684,�k�k��,4.0,��
2019/11/14,22:40,0.724,1.040,0.687,1.288,0.911,0.412,0.721,0.684,�k�k��,5.3,��
2019/11/14,22:50,0.722,1.039,0.687,1.289,0.911,0.415,0.723,0.683,�k��,5.8,��
2019/11/14,23:00,0.721,1.039,0.688,1.286,0.911,0.413,0.721,0.684,�k�k��,5.8,��
2019/11/14,23:10,0.723,1.039,0.689,1.288,0.911,0.413,0.722,0.684,�k�k��,3.9,��
2019/11/14,23:20,0.722,1.040,0.687,1.288,0.910,0.411,0.723,0.685,�k�k��,3.8,��
2019/11/14,23:30,0.723,1.039,0.686,1.288,0.910,0.413,0.721,0.683,�k�k��,3.9,��
2019/11/14,23:40,0.721,1.039,0.685,1.289,0.912,0.412,0.721,0.683,�k�k��,4.0,��
2019/11/14,23:50,0.720,1.039,0.685,1.289,0.909,0.412,0.723,0.683,�k�k��,4.0,��
